NOAA 16 DEB, 41266

Orbit data source: Space-Track

NOAA 16 DEB, 41266 is space debris in SSO originally from a launch on Thu, 21 Sep 2000 UTC launched from the Air Force Western Test Range (AFWTR). Debris objects in space refer to the collection of defunct objects orbiting the Earth. Examples of debris include non-operational satellites, rocket bodies, and fragments generated from explosions, collisions, or faulty payload assembly.

Loading next visibility...
Identifier
41266, 2000-055FS
Orbit
SSO
Country
Flag of USUS
Related business
Manufacturer
Unknown
Mission
Spacecraft
Bus & Motor
Unknown
Mass
Unknown
Launch date (UTC)
2000-09-21 (25 years ago)
Launch vehicle
Unknown
Launch site
Air Force Western Test Range (AFWTR)
Object type
Payload
Rocket body
Debris
Shape & HBR
Unknown
Radar Cross Section
Small (<0.1 m²)

Expand to show TLE details & history
Last TLE update: 11 hours ago

TLE from 11 hours ago
0 NOAA 16 DEB
1 41266U 00055FS  25259.42135305  .00003294  00000-0  14034-2 0  9997
2 41266  98.6689 323.3043 0005776 121.4289 238.7456 14.25801306501244
Epoch: 2025-09-16T10:06Z
TLE epoch observation values (Epoch: 2025-09-16T10:06:44.903Z)
Latitude
-0.00005°
Longitude
176.00532°
Altitude
810.879 km
Speed
7.447 km/s
True Right ascension
21h 33m 13s
True Declination
0° 00' 00"
Sunlit
Object was in full shadow at epoch
Visualization orbit readout
Latitude
Unknown
Longitude
Unknown
Altitude
Unknown
Speed
Unknown
Apparent Right ascension
Unknown
Apparent Declination
Unknown
Sunlit
N/A
Visualization observer readout
Local Sidereal Time
14:01:22
Azimuth
Unknown
Elevation
Unknown
Doppler factor
Unknown
Orbital elements
Apogee altitude
807.096 km
Perigee altitude
798.801 km
Semi-major axis
7,181.086 km
Eccentricity
0.00058
Inclination
98.6689°
RAAN
323.3043°
Arg. of periapsis
121.4289°
True anomaly
238.68904°
Mean anomaly
238.7456°
Eccentric anomaly
238.71732°
Mean motion
3.56663 °/min
Orbital period
100.94 mins
BSTAR
0.0014034
Loading maneuver chart data...
Computing Atmospheric mass density...
Loading historical data...
Loading historical data...
Loading historical data...
Loading historical data...
Loading historical data...
Loading historical data...
Loading historical data...

Documentation

Showing up to 5 results
|